| time (UTC) | temp F | wind direction | speed MPH | gust MPH | rain 1hr in | rain 24hr in | rain mn in | humidity % | barometer mb |
| 20260507151601 | 49 | 96 | 0.0 | 0.0 | 0.00 | 0.00 | 0.00 | 88 | 1020.0 |
| 20260507150055 | 46 | 203 | 0.0 | 0.0 | 0.00 | 0.00 | 0.00 | 91 | 1020.1 |
| 20260507144552 | 43 | 353 | 0.0 | 0.0 | 0.00 | 0.00 | 0.00 | 93 | 1020.2 |
| 20260507143051 | 41 | 150 | 0.0 | 0.0 | 0.00 | 0.00 | 0.00 | 93 | 1020.3 |
| 20260507141540 | 39 | 198 | 0.0 | 0.0 | 0.00 | 0.00 | 0.00 | 93 | 1020.3 |
| 20260507140036 | 38 | 260 | 0.0 | 0.0 | 0.00 | 0.00 | 0.00 | 93 | 1020.4 |
| 20260507134532 | 37 | 314 | 0.0 | 0.0 | 0.00 | 0.00 | 0.00 | 93 | 1020.3 |
| 20260507133026 | 36 | 148 | 0.0 | 0.0 | 0.00 | 0.00 | 0.00 | 93 | 1020.1 |
| 20260507131527 | 36 | 174 | 0.0 | 0.0 | 0.00 | 0.00 | 0.00 | 92 | 1019.9 |
| 20260507130018 | 36 | 112 | 0.0 | 0.0 | 0.00 | 0.00 | 0.00 | 92 | 1019.9 |
| 20260507124513 | 36 | 14 | 0.0 | 0.0 | 0.00 | 0.00 | 0.00 | 92 | 1019.8 |
| 20260507123009 | 36 | 100 | 0.0 | 0.0 | 0.00 | 0.00 | 0.00 | 91 | 1019.8 |
| 20260507121504 | 36 | 139 | 0.0 | 0.0 | 0.00 | 0.00 | 0.00 | 89 | 1019.8 |
| 20260507114559 | 37 | 49 | 0.0 | 0.0 | 0.00 | 0.00 | 0.00 | 89 | 1019.9 |
| 20260507113051 | 37 | 169 | 0.0 | 0.0 | 0.00 | 0.00 | 0.00 | 89 | 1020.0 |
| 20260507111545 | 37 | 34 | 0.0 | 0.0 | 0.00 | 0.00 | 0.00 | 88 | 1020.1 |
| 20260507110042 | 37 | 211 | 0.0 | 0.0 | 0.00 | 0.00 | 0.00 | 88 | 1020.1 |
| 20260507104538 | 37 | 290 | 0.0 | 0.0 | 0.00 | 0.00 | 0.00 | 88 | 1020.1 |
| 20260507103033 | 37 | 359 | 0.0 | 0.0 | 0.00 | 0.00 | 0.00 | 89 | 1020.3 |
| 20260507101538 | 38 | 207 | 0.0 | 1.0 | 0.00 | 0.00 | 0.00 | 88 | 1020.3 |
| 20260507100035 | 38 | 255 | 0.0 | 0.0 | 0.00 | 0.00 | 0.00 | 87 | 1020.4 |
| 20260507094520 | 38 | 221 | 0.0 | 0.0 | 0.00 | 0.00 | 0.00 | 87 | 1020.4 |
| 20260507093015 | 38 | 146 | 0.0 | 0.0 | 0.00 | 0.00 | 0.00 | 87 | 1020.5 |
| 20260507091511 | 38 | 113 | 0.0 | 0.0 | 0.00 | 0.00 | 0.00 | 88 | 1020.6 |
| 20260507090007 | 39 | 296 | 0.0 | 0.0 | 0.00 | 0.00 | 0.00 | 86 | 1020.6 |
| 20260507084503 | 39 | 14 | 0.0 | 0.0 | 0.00 | 0.00 | 0.00 | 87 | 1020.7 |
| 20260507083119 | 39 | 224 | 0.0 | 0.0 | 0.00 | 0.00 | 0.00 | 87 | 1020.8 |
| 20260507081600 | 40 | 320 | 0.0 | 0.0 | 0.00 | 0.00 | 0.00 | 88 | 1020.7 |
| 20260507080050 | 40 | 181 | 0.0 | 0.0 | 0.00 | 0.00 | 0.00 | 88 | 1020.6 |
| 20260507074548 | 41 | 309 | 0.0 | 0.0 | 0.00 | 0.00 | 0.00 | 89 | 1020.8 |
| 20260507073051 | 41 | 204 | 0.0 | 0.0 | 0.00 | 0.00 | 0.00 | 89 | 1020.9 |
| 20260507071538 | 41 | 116 | 0.0 | 0.0 | 0.00 | 0.00 | 0.00 | 89 | 1020.8 |
| 20260507070038 | 41 | 135 | 0.0 | 0.0 | 0.00 | 0.00 | 0.00 | 89 | 1020.8 |
| 20260507064537 | 42 | 172 | 0.0 | 0.0 | 0.00 | 0.00 | 0.00 | 89 | 1020.8 |
| 20260507063033 | 42 | 266 | 0.0 | 0.0 | 0.00 | 0.00 | 0.00 | 89 | 1020.7 |
| 20260507061530 | 43 | 179 | 0.0 | 0.0 | 0.00 | 0.00 | 0.00 | 87 | 1020.7 |
| 20260507060029 | 44 | 23 | 0.0 | 0.0 | 0.00 | 0.00 | 0.00 | 87 | 1020.6 |
| 20260507054537 | 44 | 253 | 0.0 | 1.0 | 0.00 | 0.00 | 0.00 | 86 | 1020.6 |
| 20260507053028 | 45 | 216 | 0.0 | 0.0 | 0.00 | 0.00 | 0.00 | 87 | 1020.7 |
| 20260507051527 | 45 | 160 | 0.0 | 1.0 | 0.00 | 0.00 | 0.00 | 87 | 1020.9 |
| 20260507050034 | 45 | 281 | 0.0 | 1.0 | 0.00 | 0.00 | 0.00 | 88 | 1021.0 |
| 20260507044534 | 45 | 281 | 0.0 | 0.0 | 0.00 | 0.00 | 0.00 | 87 | 1020.7 |
| 20260507043026 | 46 | 292 | 0.0 | 0.0 | 0.00 | 0.00 | 0.00 | 86 | 1020.6 |
| 20260507041531 | 47 | 233 | 0.0 | 0.0 | 0.00 | 0.00 | 0.00 | 86 | 1020.5 |
| 20260507040023 | 48 | 117 | 0.0 | 0.0 | 0.00 | 0.00 | 0.00 | 85 | 1020.5 |
| 20260507034523 | 50 | 58 | 0.0 | 0.0 | 0.00 | 0.00 | 0.00 | 83 | 1020.3 |
| 20260507033026 | 52 | 98 | 0.0 | 0.0 | 0.00 | 0.00 | 0.00 | 82 | 1020.1 |
| 20260507031526 | 52 | 112 | 0.0 | 1.0 | 0.00 | 0.00 | 0.00 | 82 | 1019.9 |
| 20260507030021 | 53 | 148 | 0.0 | 1.0 | 0.00 | 0.00 | 0.00 | 80 | 1019.8 |
| 20260507024523 | 54 | 283 | 0.0 | 1.0 | 0.00 | 0.00 | 0.00 | 79 | 1019.6 |
| 20260507023017 | 55 | 309 | 0.0 | 1.0 | 0.00 | 0.00 | 0.00 | 76 | 1019.3 |
| 20260507021515 | 56 | 322 | 0.0 | 3.0 | 0.00 | 0.00 | 0.00 | 75 | 1019.2 |
| 20260507020112 | 57 | 158 | 0.0 | 1.0 | 0.00 | 0.00 | 0.00 | 73 | 1019.1 |
| 20260507014510 | 58 | 209 | 0.0 | 1.0 | 0.00 | 0.00 | 0.00 | 70 | 1019.2 |
| 20260507013059 | 59 | 237 | 0.0 | 3.0 | 0.00 | 0.00 | 0.00 | 69 | 1019.3 |
| 20260507011555 | 60 | 214 | 0.0 | 4.0 | 0.00 | 0.00 | 0.00 | 69 | 1019.4 |
| 20260507010051 | 61 | 98 | 0.0 | 2.0 | 0.00 | 0.00 | 0.00 | 66 | 1019.5 |
| 20260507004547 | 62 | 68 | 0.0 | 3.0 | 0.00 | 0.00 | 0.00 | 64 | 1019.6 |
| 20260507003044 | 63 | 91 | 0.0 | 3.0 | 0.00 | 0.00 | 0.00 | 60 | 1019.8 |
| 20260507001538 | 63 | 223 | 0.0 | 3.0 | 0.00 | 0.00 | 0.00 | 50 | 1020.0 |
| 20260507000035 | 64 | 340 | 2.0 | 6.0 | 0.00 | 0.00 | 0.00 | 39 | 1020.2 |
| 20260506234536 | 64 | 115 | 1.0 | 5.0 | 0.00 | 0.00 | 0.00 | 37 | 1020.2 |
| 20260506233025 | 64 | 32 | 0.0 | 5.0 | 0.00 | 0.00 | 0.00 | 36 | 1020.3 |
| 20260506231532 | 64 | 81 | 0.0 | 6.0 | 0.00 | 0.00 | 0.00 | 38 | 1020.3 |
| 20260506230018 | 64 | 167 | 0.0 | 4.0 | 0.00 | 0.00 | 0.00 | 39 | 1020.6 |
| 20260506224514 | 64 | 215 | 3.0 | 7.0 | 0.00 | 0.00 | 0.00 | 32 | 1020.7 |
| 20260506223009 | 64 | 219 | 1.0 | 7.0 | 0.00 | 0.00 | 0.00 | 34 | 1020.8 |
| 20260506221505 | 63 | 99 | 2.0 | 8.0 | 0.00 | 0.00 | 0.00 | 31 | 1021.0 |
| 20260506220101 | 62 | 142 | 0.0 | 9.0 | 0.00 | 0.00 | 0.00 | 32 | 1021.3 |
| 20260506214556 | 62 | 98 | 3.0 | 10.0 | 0.00 | 0.00 | 0.00 | 33 | 1021.4 |
| 20260506213113 | 62 | 210 | 3.0 | 6.0 | 0.00 | 0.00 | 0.00 | 32 | 1021.6 |
| 20260506211604 | 62 | 207 | 4.0 | 10.0 | 0.00 | 0.00 | 0.00 | 32 | 1021.7 |
| 20260506210045 | 61 | 341 | 3.0 | 10.0 | 0.00 | 0.00 | 0.00 | 35 | 1021.6 |
| 20260506204547 | 61 | 205 | 4.0 | 11.0 | 0.00 | 0.00 | 0.00 | 37 | 1021.7 |
| 20260506203034 | 61 | 202 | 3.0 | 11.0 | 0.00 | 0.00 | 0.00 | 39 | 1021.7 |
| 20260506201535 | 61 | 82 | 2.0 | 9.0 | 0.00 | 0.00 | 0.00 | 41 | 1021.9 |
| 20260506200026 | 61 | 171 | 4.0 | 12.0 | 0.00 | 0.00 | 0.00 | 40 | 1022.0 |
| 20260506194527 | 60 | 90 | 3.0 | 9.0 | 0.00 | 0.00 | 0.00 | 42 | 1022.2 |
| 20260506193016 | 60 | 98 | 3.0 | 11.0 | 0.00 | 0.00 | 0.00 | 45 | 1022.1 |
| 20260506191512 | 60 | 68 | 0.0 | 10.0 | 0.00 | 0.00 | 0.00 | 50 | 1022.3 |
| 20260506190010 | 59 | 144 | 6.0 | 10.0 | 0.00 | 0.00 | 0.00 | 47 | 1022.5 |
| 20260506184503 | 59 | 36 | 3.0 | 11.0 | 0.00 | 0.00 | 0.00 | 49 | 1022.4 |
| 20260506183103 | 58 | 93 | 3.0 | 10.0 | 0.00 | 0.00 | 0.00 | 49 | 1022.4 |
| 20260506181554 | 58 | 205 | 1.0 | 9.0 | 0.00 | 0.00 | 0.00 | 51 | 1022.4 |
| 20260506180054 | 58 | 316 | 5.0 | 11.0 | 0.00 | 0.00 | 0.00 | 49 | 1022.4 |
| 20260506174550 | 58 | 236 | 2.0 | 8.0 | 0.00 | 0.00 | 0.00 | 52 | 1022.6 |
| 20260506173050 | 58 | 314 | 0.0 | 8.0 | 0.00 | 0.00 | 0.00 | 51 | 1022.4 |
| 20260506171541 | 57 | 138 | 4.0 | 12.0 | 0.00 | 0.00 | 0.00 | 50 | 1022.5 |
| 20260506170050 | 57 | 201 | 2.0 | 9.0 | 0.00 | 0.00 | 0.00 | 51 | 1022.7 |
| 20260506164530 | 57 | 80 | 2.0 | 8.0 | 0.00 | 0.00 | 0.00 | 51 | 1022.6 |
| 20260506163028 | 56 | 196 | 0.0 | 5.0 | 0.00 | 0.00 | 0.00 | 55 | 1022.5 |
| 20260506161522 | 56 | 201 | 2.0 | 5.0 | 0.00 | 0.00 | 0.00 | 56 | 1022.6 |
| 20260506160017 | 55 | 45 | 1.0 | 7.0 | 0.00 | 0.00 | 0.00 | 56 | 1022.6 |
| 20260506154513 | 54 | 90 | 1.0 | 5.0 | 0.00 | 0.00 | 0.00 | 59 | 1022.8 |
| 20260506153010 | 52 | 171 | 1.0 | 7.0 | 0.00 | 0.00 | 0.00 | 63 | 1022.7 |